Vertical_Velocity
5 2 -2 -8 8 7 2 26 -4 -0 -3 1 -10 -2 2 3 1 -1 -1 1 -1 -0 0 0 -1 -0 -2 1 -2 -1 -2 -2 -1 -0 -1 0 0 -1 -2 -2 -2 -2 -2 -2 -1 1 1 1 -2
4 4 -3 -3 -15 7 -0 6 1 -3 -2 -3 -7 -2 11 5 3 -3 -1 1 -2 -1 -0 1 -1 -1 -3 -0 -2 -2 -0 -1 -0 1 2 1 1 -0 -1 -1 -2 -3 -1 -1 -2 -3 -1 0 -1
1 -2 -4 -7 16 -4 -5 1 -3 1 -1 -3 -6 -9 3 7 1 -2 -4 1 -2 -0 0 -1 -0 -1 -2 -2 -1 -1 -0 1 -0 -1 -1 -0 -1 -2 -1 1 -1 -1 -2 -3 -2 -2 -2 -1 -1
-2 16 -0 10 -2 16 13 3 6 -2 11 -2 -4 1 -1 -1 -3 -3 -1 1 -1 -1 1 -0 0 -1 -1 -3 -0 1 -0 -0 -0 -2 -1 -1 -0 0 -1 -0 -1 2 1 -3 -1 -2 -1 -3 -1
-12 -0 -6 -7 5 8 -0 -3 -7 0 18 0 -2 -3 -1 -1 -2 -1 -2 -2 1 -0 0 0 -1 -1 -1 -1 1 2 -0 -0 -1 -1 -0 -1 -1 -0 1 0 1 2 -0 -1 -1 -2 -2 -1 -3
-20 -8 -13 -3 0 -6 -1 -5 -6 0 -1 1 1 -2 -1 -2 -0 -1 -2 -1 -3 0 0 1 -1 -0 -2 0 1 1 -0 -0 -0 -3 -3 -1 -2 -1 -1 2 3 2 2 2 0 -0 -1 -2 -2
6 -5 -2 5 -6 -3 -6 -1 -1 -7 -1 -2 -1 14 1 -1 0 -0 2 -3 -3 0 -1 -1 -3 -0 -2 1 0 0 -2 -1 -2 -1 -2 -3 -3 -1 2 -3 2 1 1 3 1 -0 0 -1 -1
-2 11 17 4 -2 -0 -3 -3 1 1 -1 -3 -2 -3 -1 -0 0 -1 1 -4 3 -2 -4 -2 -4 -4 -1 -1 1 -0 -3 -1 -3 -2 -2 -0 2 5 5 1 -2 2 1 -1 -0 -3 -2 -2 -0
4 -6 0 3 -3 -2 -1 -8 5 5 10 -0 -5 -5 -3 -2 -1 -1 -1 1 -3 -2 -4 -2 -2 -5 -0 4 4 -1 -2 -0 -1 -4 -3 -1 -8 7 9 -0 5 -4 -1 1 -3 2 -2 -3 -2
12 5 -3 -4 2 2 -2 -0 0 16 -10 6 -5 -3 -2 -2 -2 -0 1 -1 0 -1 -1 -2 -2 2 3 6 7 4 -3 -1 -4 -3 -3 -2 5 2 7 -4 -4 -1 0 -0 -1 -5 -4 -0 -2
2 -1 -4 -5 -2 -2 -3 -2 3 2 7 -6 -4 -3 -2 -2 -1 -2 1 -2 -1 1 -3 -2 -1 5 4 -0 -1 9 -1 0 -4 -4 -4 1 30 98 -1 -3 -1 0 -4 -1 4 -2 1 1 1
7 -2 -3 -2 -3 -2 -1 -2 -1 -2 -4 -5 -3 -2 -3 -3 -2 -3 4 -1 -1 -3 2 -3 -4 3 2 -9 -1 9 0 -0 -2 -2 -2 -1 7 -5 -5 -4 -2 -1 13 -3 2 2 -3 2 -0
6 -3 -2 -1 1 1 -0 8 5 -0 -2 -2 -1 -1 -1 -1 -1 -1 -2 -1 -4 -2 -1 -6 -6 -1 5 8 9 6 -2 -1 2 -5 -3 -5 -3 -5 -2 5 0 5 -4 4 2 2 4 6 0
-1 -3 -3 -3 -2 -3 3 -5 21 2 4 -4 -0 1 1 -0 -2 0 5 -3 1 -2 -3 -6 5 -5 -1 0 1 3 1 -3 -2 -1 1 1 -0 5 -2 7 -0 -0 3 10 -5 3 2 3 1
-7 2 -4 -1 -3 -3 4 -3 -13 2 4 -4 -6 -5 -4 -0 -1 -0 -1 -1 1 -2 -2 -1 -0 0 -2 -1 0 2 4 -0 0 -2 -3 2 -1 -1 8 -5 19 -0 5 2 6 2 -2 -5 -0
-4 28 4 -3 -3 -4 -1 2 10 9 -4 -4 -5 -4 -3 -2 -1 -2 -1 -2 -3 -4 2 -2 0 -1 0 -0 -1 0 3 1 -1 -0 -2 -1 1 2 3 5 3 3 40 2 -5 -5 -5 18 14
17 -11 10 -15 -1 -2 -3 -4 -2 -3 -7 28 -21 -4 -2 -3 -2 -0 0 -0 -0 -1 -3 -1 -2 0 -0 1 -1 0 2 3 1 1 2 -1 1 2 3 1 -2 -1 -1 -6 4 1 -6 7 33
-11 46 -6 1 -9 -5 -4 -3 -3 -4 -7 -11 -21 -5 -3 -3 -4 -3 -2 1 -0 -1 1 -2 -3 -5 -0 1 -2 -1 1 2 2 0 -1 -1 -1 -0 5 3 0 -2 0 -2 -7 -3 3 -3 20
0 -8 -4 -4 -5 -2 -3 5 5 4 -2 -4 -0 -6 -3 -0 -8 -12 -6 -3 -2 -0 0 -9 -6 -5 0 -1 -0 1 1 1 -1 -1 -3 -3 1 -1 1 2 1 -2 3 -2 -1 -5 4 1 6
-2 -4 8 -5 -8 1 12 2 1 3 6 5 1 0 -2 -12 -7 11 -15 -8 -2 -1 1 3 5 0 -16 -5 -1 -3 0 -1 -1 -1 -2 0 -2 -2 -1 2 1 2 -2 -2 -2 1 1 9 -7
-3 -9 18 -8 -9 8 37 -29 2 -2 28 6 6 -2 -2 -13 6 -18 36 -20 -9 -1 -2 2 2 3 3 3 -5 -1 -2 1 3 2 -1 -2 -3 -5 -3 1 -0 1 2 2 -3 2 8 14 3
-1 20 -10 -4 -2 -0 37 -10 -19 3 -1 -0 -1 -3 -1 -18 54 16 38 -41 -22 -9 4 -2 1 2 1 1 1 -1 1 1 1 -0 1 1 -0 -0 -1 -1 2 -1 3 4 2 3 7 8 9
-9 0 -3 -1 -1 -4 48 6 -16 20 -22 2 0 -2 -2 -6 -25 -19 -1 17 -8 -18 -7 0 -1 -2 -1 -2 -0 -2 -0 1 -1 -0 2 -5 2 -2 0 1 1 2 3 0 1 4 5 4 2
-1 -4 -3 -5 -3 5 16 -4 -26 -9 -0 -0 -1 -6 -4 -1 -4 -17 -1 9 12 -15 -3 -0 -1 1 -2 -2 -0 0 -2 -1 -3 0 -6 -3 -5 -5 -2 0 2 -3 -3 -2 -1 -0 -2 2 1
-1 -3 0 -10 1 39 5 -10 -7 -15 -5 12 4 -11 1 -3 -1 -5 -11 -19 5 -7 -1 -3 1 -0 1 2 -1 -1 -0 -0 1 -5 -3 -4 -3 -0 -0 -2 -1 -2 -1 1 -1 -1 -4 1 1
-2 3 19 -4 0 -15 20 -13 3 11 2 9 3 2 -1 -3 -1 -4 -5 -5 -3 -5 -7 -2 -4 2 -1 -2 -1 0 -0 -0 1 -0 -2 1 -0 -4 -5 -1 -2 -4 -3 -1 -2 1 -1 1 -0
-6 12 32 10 76 41 13 10 19 14 -1 3 3 11 2 -2 -2 -0 -5 -8 -4 -0 -4 -7 -6 -3 -1 2 2 3 1 1 1 1 2 0 -1 1 5 3 0 -4 -0 4 -4 -4 -0 -3 -1
-2 18 3 47 -6 17 24 4 6 36 5 1 1 10 9 3 3 -1 -0 -0 -3 -1 -2 -3 -0 1 -2 -2 -1 -2 0 9 -1 -1 1 2 -0 1 4 2 3 5 -2 -2 2 0 -3 2 -2
-0 -6 -9 -2 -13 8 24 30 -31 -18 -21 11 -2 0 4 1 -1 -1 -1 -1 -2 -2 -1 -2 -3 -4 -1 4 -5 5 -3 6 -2 6 6 1 1 -1 -1 6 4 3 5 -1 -0 -1 3 1 1
9 -14 -1 -17 -31 -14 -23 -12 -7 -28 -7 22 -2 1 -0 1 -0 -3 1 -5 -1 -1 -2 -1 -2 0 -1 -1 -2 5 3 4 7 -3 5 -2 -1 -2 -1 -4 -1 20 -2 5 3 2 -5 4 -6
Height
5917 5916 5915 5915 5915 5912 5910 5909 5905 5908 5907 5906 5901 5905 5902 5902 5902 5903 5901 5901 5903 5904 5903 5904 5904 5904 5904 5904 5904 5904 5902 5900 5897 5895 5893 5892 5893 5892 5893 5893 5894 5895 5895 5896 5897 5898 5899 5900 5901
5919 5917 5917 5915 5912 5913 5914 5912 5911 5909 5909 5907 5904 5905 5899 5901 5903 5902 5901 5902 5904 5905 5904 5905 5905 5905 5905 5905 5905 5905 5904 5901 5900 5899 5897 5895 5895 5896 5896 5896 5896 5896 5897 5897 5899 5901 5901 5901 5902
5918 5916 5915 5916 5917 5917 5916 5912 5910 5910 5909 5909 5905 5906 5901 5901 5903 5903 5902 5904 5905 5905 5905 5906 5906 5907 5907 5906 5907 5906 5906 5904 5903 5902 5900 5899 5898 5898 5898 5898 5899 5899 5899 5900 5900 5902 5903 5903 5903
5922 5920 5920 5922 5921 5920 5919 5914 5912 5906 5909 5908 5907 5904 5901 5902 5903 5903 5903 5904 5905 5905 5906 5908 5908 5908 5908 5908 5908 5908 5908 5907 5905 5904 5902 5902 5901 5900 5901 5901 5901 5902 5902 5902 5902 5903 5904 5904 5904
5924 5918 5918 5923 5922 5918 5917 5916 5913 5907 5910 5910 5909 5907 5905 5905 5905 5905 5904 5904 5905 5905 5906 5908 5908 5910 5910 5910 5910 5910 5910 5909 5907 5906 5904 5902 5902 5902 5903 5904 5904 5905 5905 5905 5905 5905 5905 5905 5906
5912 5918 5924 5925 5923 5919 5919 5917 5916 5915 5913 5912 5909 5907 5907 5906 5905 5905 5904 5905 5904 5905 5906 5908 5910 5910 5911 5912 5912 5911 5911 5911 5909 5907 5905 5904 5904 5903 5903 5905 5907 5908 5908 5908 5908 5908 5908 5907 5907
5925 5923 5928 5926 5922 5920 5919 5919 5918 5915 5915 5913 5910 5905 5908 5906 5905 5905 5905 5904 5905 5906 5907 5908 5911 5911 5913 5914 5914 5913 5913 5913 5909 5909 5911 5911 5910 5908 5906 5906 5909 5910 5910 5910 5910 5909 5910 5911 5910
5924 5929 5934 5930 5926 5923 5922 5920 5921 5918 5917 5914 5911 5909 5908 5906 5906 5905 5905 5903 5906 5905 5907 5909 5911 5912 5913 5915 5915 5915 5915 5913 5912 5913 5912 5913 5913 5910 5908 5909 5909 5913 5912 5911 5911 5911 5911 5912 5913
5930 5929 5934 5933 5929 5925 5924 5922 5921 5915 5915 5913 5911 5909 5908 5906 5906 5906 5906 5906 5905 5906 5907 5910 5912 5914 5914 5915 5917 5917 5917 5914 5916 5914 5913 5915 5911 5907 5908 5909 5911 5911 5915 5916 5916 5914 5914 5914 5915
5933 5930 5933 5931 5930 5928 5924 5924 5920 5908 5915 5914 5912 5910 5909 5908 5906 5906 5907 5907 5907 5908 5908 5911 5912 5916 5914 5913 5915 5918 5918 5916 5917 5916 5917 5917 5913 5913 5914 5910 5911 5914 5917 5917 5918 5918 5916 5916 5917
5933 5931 5931 5928 5928 5927 5926 5925 5923 5919 5917 5914 5913 5911 5910 5908 5907 5906 5907 5907 5907 5908 5909 5910 5913 5915 5911 5909 5915 5918 5920 5918 5917 5917 5918 5915 5896 5912 5916 5913 5913 5916 5916 5916 5917 5917 5917 5918 5919
5935 5931 5930 5929 5928 5928 5927 5925 5924 5921 5918 5916 5914 5911 5910 5909 5907 5906 5908 5907 5907 5906 5910 5909 5911 5914 5910 5917 5915 5920 5921 5921 5918 5919 5919 5918 5914 5919 5917 5915 5916 5916 5916 5916 5919 5919 5917 5918 5921
5935 5932 5930 5930 5931 5929 5927 5926 5923 5921 5919 5917 5914 5912 5911 5910 5909 5907 5906 5905 5906 5906 5906 5909 5908 5913 5915 5916 5919 5922 5921 5923 5922 5919 5919 5920 5919 5922 5919 5920 5919 5917 5917 5916 5919 5922 5921 5919 5922
5932 5932 5931 5931 5931 5929 5928 5921 5915 5924 5921 5918 5917 5915 5913 5912 5911 5910 5909 5907 5907 5905 5904 5905 5904 5912 5916 5918 5921 5922 5922 5923 5923 5922 5922 5923 5923 5922 5919 5918 5920 5923 5922 5921 5920 5924 5924 5921 5923
5932 5935 5933 5933 5931 5930 5927 5925 5923 5924 5922 5920 5917 5915 5914 5913 5912 5911 5910 5909 5908 5905 5904 5903 5906 5911 5915 5918 5920 5922 5923 5924 5925 5924 5924 5926 5927 5927 5923 5916 5921 5927 5925 5922 5922 5924 5925 5924 5925
5937 5942 5936 5934 5932 5929 5928 5923 5924 5924 5922 5921 5919 5917 5916 5914 5913 5912 5911 5909 5908 5907 5907 5907 5908 5912 5915 5918 5920 5922 5923 5924 5926 5925 5924 5927 5929 5929 5928 5926 5928 5926 5926 5927 5924 5921 5923 5929 5928
5941 5941 5940 5933 5932 5931 5929 5926 5925 5924 5924 5912 5920 5919 5917 5916 5914 5914 5913 5912 5910 5909 5909 5910 5912 5912 5915 5917 5920 5923 5924 5925 5926 5928 5927 5927 5929 5930 5931 5931 5928 5925 5928 5928 5928 5926 5927 5924 5914
5936 5944 5940 5937 5931 5929 5927 5926 5924 5924 5924 5919 5923 5920 5918 5917 5916 5915 5914 5913 5913 5911 5911 5912 5912 5913 5916 5918 5921 5923 5924 5925 5927 5928 5929 5929 5930 5931 5932 5933 5933 5930 5933 5933 5932 5930 5931 5928 5927
5936 5937 5937 5936 5930 5928 5925 5924 5924 5923 5923 5924 5923 5921 5919 5918 5916 5914 5914 5914 5914 5914 5913 5914 5914 5913 5916 5918 5919 5921 5923 5925 5926 5928 5928 5930 5931 5931 5931 5933 5933 5929 5933 5935 5935 5932 5930 5929 5928
5934 5936 5938 5935 5929 5928 5925 5925 5927 5926 5924 5924 5924 5923 5921 5917 5914 5912 5911 5913 5914 5915 5916 5917 5917 5918 5918 5919 5920 5923 5924 5925 5927 5928 5928 5930 5930 5931 5933 5933 5934 5934 5932 5934 5935 5934 5930 5931 5931
5934 5936 5937 5933 5928 5926 5931 5915 5915 5918 5924 5923 5924 5924 5923 5918 5914 5901 5917 5913 5916 5917 5917 5918 5919 5920 5920 5921 5920 5922 5924 5926 5927 5927 5927 5928 5928 5929 5931 5932 5934 5935 5936 5935 5935 5936 5935 5933 5934
5935 5936 5931 5928 5925 5924 5926 5918 5920 5924 5917 5924 5924 5923 5923 5921 5921 5903 5918 5912 5916 5918 5920 5919 5920 5920 5920 5921 5921 5921 5920 5922 5923 5922 5924 5925 5926 5926 5927 5929 5931 5931 5933 5934 5935 5938 5937 5935 5933
5932 5931 5928 5926 5923 5923 5927 5924 5924 5906 5915 5924 5926 5925 5923 5921 5919 5917 5911 5903 5910 5918 5920 5922 5922 5921 5920 5921 5920 5919 5919 5920 5921 5922 5922 5922 5922 5923 5924 5925 5926 5927 5928 5929 5930 5931 5932 5933 5933
5926 5926 5924 5923 5923 5924 5922 5918 5918 5921 5923 5923 5924 5924 5922 5922 5921 5920 5915 5903 5910 5918 5921 5922 5923 5923 5922 5921 5920 5919 5918 5918 5918 5918 5917 5918 5919 5918 5920 5921 5922 5922 5922 5923 5925 5926 5927 5928 5928
5924 5923 5925 5923 5921 5926 5920 5917 5917 5920 5922 5922 5921 5922 5922 5922 5922 5921 5920 5919 5920 5920 5920 5920 5921 5921 5921 5920 5920 5919 5918 5918 5917 5915 5915 5915 5915 5915 5917 5917 5917 5917 5918 5918 5920 5921 5922 5923 5923
5923 5926 5926 5920 5919 5922 5918 5914 5917 5916 5918 5920 5920 5920 5920 5921 5920 5921 5921 5920 5920 5919 5918 5918 5918 5919 5919 5919 5918 5917 5916 5916 5915 5914 5913 5912 5911 5911 5911 5912 5909 5910 5911 5913 5913 5914 5916 5918 5918
5921 5924 5926 5921 5923 5922 5914 5914 5913 5915 5915 5917 5919 5919 5918 5918 5918 5918 5918 5918 5918 5917 5916 5916 5915 5915 5915 5914 5915 5915 5914 5913 5912 5911 5910 5909 5909 5909 5908 5906 5906 5905 5905 5906 5907 5909 5909 5911 5913
5917 5920 5920 5914 5914 5915 5906 5902 5906 5901 5910 5916 5918 5917 5916 5916 5916 5915 5915 5914 5913 5913 5912 5911 5911 5910 5910 5909 5910 5909 5908 5908 5906 5906 5906 5905 5904 5903 5903 5902 5901 5902 5900 5900 5901 5903 5902 5902 5903
5915 5914 5913 5911 5909 5906 5903 5895 5896 5886 5900 5912 5915 5914 5912 5911 5911 5911 5910 5909 5908 5907 5907 5906 5905 5903 5903 5903 5902 5902 5902 5901 5901 5899 5898 5898 5899 5898 5898 5897 5897 5896 5895 5895 5896 5896 5896 5896 5894
5912 5911 5911 5911 5909 5904 5897 5899 5902 5906 5901 5907 5909 5909 5906 5906 5905 5904 5904 5902 5902 5901 5899 5898 5897 5896 5894 5893 5892 5892 5892 5892 5893 5891 5890 5890 5891 5891 5890 5890 5889 5890 5889 5889 5889 5891 5891 5890 5890